sat.trackr.live / text

‹ back to catalog

STARLINK-3946

NORAD 52693 · 2022-053AP

PAYLOAD ACTIVE UNKNOWN

§ Identity

Operator
Country
US
Launch date
2022-05-18
Launch site
AFETR
Launch vehicle
Mass (kg)
RCS (m²)

Purposes: comms

External: N2YO · Heavens-Above · Gunter

§ Orbital elements

Epoch: 2026-09-20T04:00:03.000096Z

Period
94.38 min
Inclination
53.1589°
Eccentricity
0.0001160
Mean motion
15.25779798 rev/d
Perigee alt
487.6 km
Apogee alt
489.2 km
Semi-major
6,866.6 km
B*
3.1852e-3
RAAN
348.7060°
Arg perigee
70.8974°
Mean anomaly
359.2846°
Rev number
578

§ Raw data

STARLINK-39461 52693U 22053AP  26263.16670139  .00083019  00000+0  31852-2 0  99902 52693  53.1589 348.7060 0001160  70.8974 359.2846 15.25779798  5786

JSON: /api/v1/satellites/52693 · /tle

For live sub-satellite position, see the globe view (requires WebGL).

§ Visibility from observer

Set your observer location to see the next 7 days of passes ≥ 10°. The values pass through the URL so the page stays shareable.

No JS? Fill the form by hand. The geolocation button needs JavaScript.